Tiempo cada hora Dabki

Hoy, 2 Diciembre, Miércoles

Tiempo Temperatura Precipitaciones Viento Presión Humedad
00:00 -2°C° 0 mm 3 mps 759 mmHg 75%
01:00 -2°C° 0 mm 3 mps 759 mmHg 77%
02:00 -2°C° 0 mm 3 mps 759 mmHg 78%
03:00 -4°C° 0 mm 3 mps 759 mmHg 80%
04:00 -4°C° 0 mm 3 mps 759 mmHg 82%
05:00 -4°C° 0 mm 3 mps 759 mmHg 82%
06:00 -4°C° 0 mm 3 mps 759 mmHg 82%
07:00 -4°C° 0 mm 4 mps 759 mmHg 83%
08:00 -4°C° 0 mm 4 mps 759 mmHg 80%
09:00 -4°C° 0 mm 4 mps 759 mmHg 77%
10:00 -3°C° 0 mm 4 mps 759 mmHg 74%
11:00 -3°C° 0 mm 4 mps 758 mmHg 71%
12:00 -3°C° 0 mm 4 mps 758 mmHg 67%
13:00 -2°C° 0 mm 5 mps 757 mmHg 63%
14:00 -3°C° 0 mm 4 mps 757 mmHg 65%
15:00 -3°C° 0 mm 4 mps 756 mmHg 67%
16:00 -4°C° 0 mm 4 mps 756 mmHg 69%
17:00 -4°C° 0 mm 4 mps 756 mmHg 68%
18:00 -4°C° 0 mm 4 mps 755 mmHg 68%
19:00 -4°C° 0 mm 4 mps 755 mmHg 67%
20:00 -4°C° 0 mm 4 mps 755 mmHg 68%
21:00 -4°C° 0 mm 4 mps 754 mmHg 68%
22:00 -5°C° 0 mm 4 mps 754 mmHg 68%
23:00 -5°C° 0 mm 4 mps 753 mmHg 70%

Mañana, 3 Diciembre, Jueves

Tiempo Temperatura Precipitaciones Viento Presión Humedad
00:00 -5°C° 0 mm 4 mps 753 mmHg 72%
01:00 -5°C° 0 mm 4 mps 753 mmHg 73%
02:00 -5°C° 0 mm 4 mps 752 mmHg 75%
03:00 -5°C° 0 mm 4 mps 751 mmHg 76%
04:00 -5°C° 0 mm 4 mps 751 mmHg 78%
05:00 -5°C° 0 mm 4 mps 750 mmHg 77%
06:00 -6°C° 0 mm 5 mps 750 mmHg 76%
07:00 -6°C° 0 mm 5 mps 749 mmHg 75%
08:00 -5°C° 0 mm 5 mps 749 mmHg 74%
09:00 -5°C° 0 mm 5 mps 749 mmHg 73%
10:00 -4°C° 0 mm 5 mps 749 mmHg 71%
11:00 -4°C° 0.5 mm 5 mps 748 mmHg 79%
12:00 -4°C° 0.5 mm 6 mps 748 mmHg 86%
13:00 -4°C° 0.5 mm 6 mps 747 mmHg 93%
14:00 -4°C° 0.3 mm 6 mps 747 mmHg 93%
15:00 -4°C° 0.3 mm 5 mps 747 mmHg 93%
16:00 -4°C° 0.3 mm 5 mps 746 mmHg 93%
17:00 -4°C° 0 mm 5 mps 746 mmHg 91%
18:00 -3°C° 0 mm 4 mps 746 mmHg 89%
19:00 -3°C° 0 mm 4 mps 746 mmHg 88%
20:00 -3°C° 0 mm 4 mps 745 mmHg 87%
21:00 -3°C° 0 mm 4 mps 745 mmHg 87%
22:00 -2°C° 0 mm 3 mps 745 mmHg 87%
23:00 -3°C° 0 mm 4 mps 744 mmHg 86%

Pasado mañana, 4 Diciembre, Viernes

Tiempo Temperatura Precipitaciones Viento Presión Humedad
00:00 -3°C° 0 mm 4 mps 744 mmHg 85%
01:00 -3°C° 0 mm 4 mps 744 mmHg 84%
02:00 -2°C° 0.1 mm 4 mps 743 mmHg 85%
03:00 -2°C° 0.1 mm 5 mps 743 mmHg 85%
04:00 -1°C° 0.1 mm 5 mps 742 mmHg 86%
05:00 -1°C° 0.3 mm 5 mps 742 mmHg 88%
06:00 -1°C° 0.3 mm 5 mps 742 mmHg 89%
07:00 -1°C° 0.3 mm 5 mps 741 mmHg 91%
08:00 -1°C° 0 mm 5 mps 741 mmHg 90%
09:00 0°C° 0 mm 5 mps 741 mmHg 89%
10:00 0°C° 0 mm 5 mps 741 mmHg 88%
11:00 0°C° 0 mm 5 mps 741 mmHg 88%
12:00 0°C° 0 mm 5 mps 740 mmHg 88%
13:00 +1°C° 0 mm 5 mps 740 mmHg 89%
14:00 +1°C° 0.1 mm 4 mps 740 mmHg 89%
15:00 +1°C° 0.1 mm 4 mps 740 mmHg 89%
16:00 +1°C° 0.1 mm 4 mps 740 mmHg 89%
17:00 +1°C° 0 mm 4 mps 740 mmHg 88%
18:00 +1°C° 0 mm 5 mps 740 mmHg 87%
19:00 +1°C° 0 mm 5 mps 740 mmHg 86%
20:00 +1°C° 0 mm 5 mps 740 mmHg 86%
21:00 +1°C° 0 mm 6 mps 740 mmHg 86%
22:00 +1°C° 0 mm 6 mps 741 mmHg 86%
23:00 +2°C° 0 mm 6 mps 741 mmHg 86%

5 Diciembre, Sábado

Tiempo Temperatura Precipitaciones Viento Presión Humedad
00:00 +2°C° 0 mm 6 mps 741 mmHg 86%
01:00 +2°C° 0 mm 6 mps 741 mmHg 86%
02:00 +2°C° 0 mm 6 mps 741 mmHg 86%
03:00 +2°C° 0 mm 6 mps 741 mmHg 85%
04:00 +2°C° 0 mm 6 mps 741 mmHg 85%
05:00 +1°C° 0 mm 6 mps 742 mmHg 85%
06:00 +1°C° 0 mm 6 mps 742 mmHg 85%
07:00 +1°C° 0 mm 6 mps 742 mmHg 86%
08:00 +2°C° 0 mm 6 mps 742 mmHg 84%
09:00 +2°C° 0 mm 6 mps 742 mmHg 83%
10:00 +3°C° 0 mm 6 mps 743 mmHg 81%
11:00 +4°C° 0 mm 6 mps 743 mmHg 79%
12:00 +5°C° 0 mm 6 mps 743 mmHg 77%
13:00 +7°C° 0 mm 6 mps 743 mmHg 75%
14:00 +5°C° 0 mm 6 mps 743 mmHg 77%
15:00 +5°C° 0 mm 6 mps 743 mmHg 78%
16:00 +5°C° 0 mm 7 mps 743 mmHg 80%
17:00 +5°C° 0 mm 7 mps 743 mmHg 80%
18:00 +5°C° 0 mm 7 mps 743 mmHg 80%
19:00 +5°C° 0 mm 7 mps 743 mmHg 81%
20:00 +5°C° 0 mm 7 mps 743 mmHg 81%
21:00 +5°C° 0 mm 7 mps 744 mmHg 82%
22:00 +4°C° 0 mm 6 mps 744 mmHg 83%
23:00 +4°C° 0 mm 6 mps 744 mmHg 83%

6 Diciembre, Domingo

Tiempo Temperatura Precipitaciones Viento Presión Humedad
00:00 +4°C° 0 mm 6 mps 744 mmHg 84%
01:00 +5°C° 0 mm 5 mps 744 mmHg 85%
02:00 +5°C° 0 mm 5 mps 744 mmHg 84%
03:00 +4°C° 0 mm 6 mps 744 mmHg 83%
04:00 +5°C° 0 mm 6 mps 744 mmHg 83%
05:00 +5°C° 0 mm 7 mps 744 mmHg 83%
06:00 +5°C° 0 mm 7 mps 744 mmHg 82%
07:00 +5°C° 0 mm 7 mps 744 mmHg 82%
08:00 +5°C° 0 mm 8 mps 744 mmHg 81%
09:00 +5°C° 0 mm 8 mps 745 mmHg 79%
10:00 +6°C° 0 mm 8 mps 745 mmHg 78%
11:00 +6°C° 0 mm 8 mps 745 mmHg 76%
12:00 +7°C° 0 mm 8 mps 745 mmHg 73%
13:00 +7°C° 0 mm 8 mps 744 mmHg 71%
14:00 +6°C° 0 mm 8 mps 744 mmHg 75%
15:00 +6°C° 0 mm 8 mps 744 mmHg 79%
16:00 +5°C° 0 mm 8 mps 744 mmHg 82%
17:00 +5°C° 0 mm 8 mps 744 mmHg 83%
18:00 +3°C° 0 mm 9 mps 744 mmHg 84%
19:00 +3°C° 0 mm 9 mps 744 mmHg 84%
20:00 +3°C° 0 mm 9 mps 744 mmHg 83%
21:00 +2°C° 0 mm 9 mps 744 mmHg 83%
22:00 +2°C° 0 mm 9 mps 744 mmHg 82%
23:00 +2°C° 0.1 mm 9 mps 744 mmHg 82%

7 Diciembre, Lunes

Tiempo Temperatura Precipitaciones Viento Presión Humedad
00:00 +2°C° 0.1 mm 9 mps 744 mmHg 82%
01:00 +2°C° 0.1 mm 9 mps 744 mmHg 82%
02:00 +2°C° 0.3 mm 9 mps 744 mmHg 83%
03:00 +2°C° 0.3 mm 9 mps 744 mmHg 83%
04:00 +2°C° 0.3 mm 9 mps 744 mmHg 84%
05:00 +2°C° 0.4 mm 8 mps 744 mmHg 84%
06:00 +1°C° 0.4 mm 8 mps 744 mmHg 84%
07:00 +1°C° 0.4 mm 8 mps 744 mmHg 84%
08:00 +2°C° 0.7 mm 7 mps 744 mmHg 85%
09:00 +2°C° 0.7 mm 7 mps 744 mmHg 87%
10:00 +2°C° 0.7 mm 7 mps 745 mmHg 88%
11:00 +2°C° 0.4 mm 7 mps 745 mmHg 88%
12:00 +2°C° 0.4 mm 6 mps 745 mmHg 88%
13:00 +2°C° 0.4 mm 6 mps 745 mmHg 88%
14:00 +1°C° 0.5 mm 6 mps 745 mmHg 88%
15:00 +1°C° 0.5 mm 6 mps 745 mmHg 89%
16:00 +1°C° 0.5 mm 5 mps 745 mmHg 90%
17:00 +1°C° 0 mm 5 mps 745 mmHg 89%
18:00 +1°C° 0 mm 5 mps 746 mmHg 88%
19:00 +1°C° 0 mm 4 mps 746 mmHg 88%
20:00 +1°C° 0 mm 4 mps 746 mmHg 88%
21:00 +1°C° 0 mm 4 mps 746 mmHg 89%
22:00 +1°C° 0 mm 4 mps 747 mmHg 90%
23:00 +2°C° 0 mm 3 mps 747 mmHg 91%
Mostrar más

Necesitamos Su Consentimiento

Meteoprog y nuestros Proveedores de Servicios pueden almacenar y acceder a sus datos personales como cookies, identificadores de dispositivo u otras tecnologías similares de su dispositivo y procesar dichos datos para personalizar contenido y anuncios, además de ofrecer funciones de redes sociales y analizar el tráfico.

  • Almacenar y/o acceder a información en su dispositivo

    Se puede almacenar o acceder a cookies, identificadores de dispositivo u otra información de su dispositivo para los fines anteriormente indicados.

  • Anuncios y contenido personalizados, medición de anuncios y contenido, percepciones del público, y desarrollo de productos

    Los anuncios y el contenido pueden personalizarse en base a su perfil. Se pueden añadir más datos para personalizar mejor los anuncios y contenidos. Se puede medir el rendimiento de los anuncios y contenidos. Se puede obtener la percepción sobre el público que ha visto los anuncios y contenidos. Dichos datos pueden usarse para desarrollar o mejorar la experiencia del usuario, sistemas y software.

Al hacer clic en ‘Estoy De Acuerdo’ usted permitirá el uso de las cookies, identificadores de dispositivo, balizas web u otras tecnologías similares indicadas. Su configuración puede cambiarse desde el navegador de su dispositivo.

Para ciertos fines, los intereses legítimos pueden ser considerados por encima del consentimiento. Puede leer más sobre ello en nuestra Política de Privacidad y Cookies.